Location: Street
(51.1247°N, 2.7429°W)
Time: 07:50:47
(UTC+01:00)

PCSat - Pass Details

Date: 29 March 2023
Orbit: 783 x 794 km, 67.1° (Epoch: 29 May)

Event Time Altitude Azimuth Distance (km) Brightness Sun altitude
Rises 02:09:47 0° 320° (NW) 3,303 13.2 -34.5°
Reaches altitude 10° 02:12:16 10° 315° (NW) 2,370 12.3 -34.3°
Enters shadow 02:13:17 15° 311° (NW) 2,010 11.8 -34.3°
